EHI
23 22 20 22 24 22 17 13 10 8 10 12 12 11 10 10 11 10 7 7 10 12 11 9 8 6 8 12 13 13 12 12 10 8 7 7 6 5 5 5 5 4 3
22 22 21 22 23 19 14 12 12 11 12 14 15 14 12 12 14 13 11 9 10 12 12 11 10 10 11 13 13 13 12 11 10 8 7 6 5 5 6 7 6 5 3
19 20 21 22 20 17 15 15 17 17 17 19 21 21 17 16 17 17 15 14 14 16 17 17 17 16 15 14 13 13 13 12 11 8 6 6 5 6 8 9 9 7 6
15 16 18 19 18 18 19 20 21 20 21 24 27 26 22 19 19 18 18 18 19 21 23 24 22 18 15 14 13 13 14 14 13 11 8 7 8 10 11 11 11 10 9
13 14 14 16 19 20 21 21 21 21 22 27 30 28 24 21 19 18 19 20 21 23 25 25 22 17 13 11 10 10 11 13 14 13 10 9 10 11 11 11 10 10 9
14 12 12 15 18 18 17 18 20 22 25 28 31 29 25 20 16 14 16 18 21 24 25 23 18 14 11 9 7 6 6 8 10 11 11 10 10 10 9 9 9 9 9
15 12 13 17 18 17 17 18 21 25 29 32 33 31 27 20 11 7 8 14 20 24 25 22 18 15 13 11 9 6 5 4 5 8 9 8 8 8 9 9 9 10 10
17 16 18 22 24 22 22 23 24 28 32 33 33 33 30 21 9 2 3 9 17 22 23 22 20 17 14 13 11 9 7 5 4 4 5 6 7 7 8 8 9 9 9
23 22 24 28 29 28 27 27 28 30 32 32 31 31 30 22 10 2 3 8 13 17 20 20 18 16 11 9 9 10 9 8 5 3 3 4 4 3 4 5 6 8 8
26 27 29 32 32 30 29 29 29 29 29 29 28 27 26 21 11 3 3 7 11 13 16 16 14 10 5 4 6 9 10 8 7 6 4 3 2 2 2 3 4 6 6
25 28 32 33 32 29 28 27 27 27 26 24 23 22 22 20 12 4 2 5 8 12 14 15 11 5 1 1 3 6 7 6 8 9 6 3 2 2 3 3 3 4 5
24 27 30 32 29 26 24 22 21 22 20 17 16 17 18 16 11 5 2 2 5 10 14 14 9 3 0 0 1 2 2 3 6 7 6 3 2 3 5 5 5 4 4
23 25 27 27 26 23 20 17 16 15 13 12 11 12 13 12 9 4 1 0 2 6 10 10 5 1 0 0 0 0 0 2 3 4 3 2 3 5 7 8 7 6 5
23 23 22 20 19 18 17 15 13 12 11 10 10 10 9 8 6 4 2 1 2 4 6 6 3 2 1 1 1 1 1 2 2 2 3 3 4 5 7 8 9 8 7
22 21 17 12 12 13 14 12 10 9 9 8 8 8 5 4 3 3 2 2 2 3 5 5 5 4 3 2 2 2 2 3 3 3 3 4 3 3 4 5 7 8 8
21 18 13 8 8 9 9 8 7 6 5 3 3 3 2 1 1 1 1 1 2 2 4 5 5 4 3 3 3 3 3 3 3 3 4 4 2 1 2 3 4 5 6
17 15 11 8 7 7 6 6 5 3 2 1 1 0 0 0 0 0 0 0 0 1 2 4 4 3 3 3 3 3 3 3 2 3 3 2 0 0 1 1 1 2 3
13 11 9 8 6 5 6 6 6 4 4 4 2 1 0 0 0 0 0 0 1 1 2 3 3 3 3 2 2 2 2 1 1 1 1 0 0 1 1 0 0 0 1
9 8 7 6 4 4 6 6 6 6 6 6 5 3 1 1 1 1 1 1 2 2 2 2 2 2 1 1 1 1 1 0 0 0 0 0 0 1 2 1 0 0 0
7 6 5 4 3 4 6 6 6 6 6 6 6 4 2 2 2 2 2 2 2 2 2 1 1 1 0 0 0 0 0 0 0 0 0 0 0 1 1 1 0 0 0
5 4 3 2 3 4 6 6 6 6 6 5 4 3 1 1 1 1 1 1 1 0 0 0 0 0 0 0 0 0 0 0 0 0 0 0 0 0 0 0 0 0 0
3 3 3 3 3 5 5 5 5 4 3 2 1 1 0 0 0 0 0 0 0 0 0 0 0 0 0 0 0 0 0 0 0 0 0 0 0 0 0 0 0 0 0
3 3 3 3 3 3 3 3 2 1 1 0 0 0 0 0 0 0 0 0 0 0 0 0 0 0 0 0 0 0 0 0 0 0 0 0 0 0 0 0 0 0 0
3 3 3 2 1 1 1 1 0 0 0 0 0 0 0 0 0 0 0 0 0 0 0 0 0 0 0 0 0 0 0 0 0 0 0 0 0 0 0 0 0 0 0
3 2 1 1 0 0 0 0 0 0 0 0 0 0 0 0 0 0 0 0 0 0 0 0 0 0 0 0 0 0 0 0 0 0 0 0 0 0 0 0 0 0 0
3 1 0 0 0 0 0 0 0 0 0 0 0 0 0 0 0 0 0 0 0 0 0 0 0 0 0 0 0 0 0 0 0 0 0 0 0 0 0 0 0 0 0
Wind_Speed
7 6 5 5 5 5 4 4 3 3 3 3 3 3 3 3 3 3 4 3 4 4 4 4 4 4 4 4 3 3 4 4 4 3 2 1 1 3 1 2 3 4 4
6 6 5 5 5 5 5 4 4 4 4 3 3 4 4 4 3 4 4 4 4 4 4 4 4 3 4 4 4 4 3 3 4 4 2 2 2 2 2 4 3 3 3
5 5 5 5 5 5 5 4 4 4 4 3 3 3 4 4 4 4 4 4 4 4 4 4 4 4 5 4 4 3 3 3 3 3 3 2 2 2 2 3 3 3 4
5 5 5 5 5 5 5 4 4 4 4 4 4 4 4 4 4 4 4 4 4 4 3 3 3 4 4 4 3 3 3 3 3 3 3 2 2 2 3 3 3 3 3
4 5 4 4 4 3 4 4 4 4 4 4 4 4 4 4 3 3 4 4 3 3 3 3 2 2 3 3 3 2 2 3 3 3 3 2 2 2 2 3 3 3 3
5 5 4 4 4 4 4 4 4 4 3 3 4 4 4 3 1 2 4 3 3 3 3 3 3 2 1 1 2 2 2 3 3 3 2 2 2 2 3 4 3 3 3
5 4 4 4 4 4 4 4 4 4 4 4 4 4 4 2 1 2 3 4 3 3 3 3 3 1 2 2 2 3 1 2 3 3 3 3 2 3 3 4 3 4 4
5 4 4 4 4 4 4 4 4 3 3 3 3 3 3 2 2 3 3 4 4 3 3 3 2 2 2 1 2 2 2 2 3 3 2 3 2 3 4 5 4 4 4
5 5 4 4 4 4 5 5 4 4 4 4 3 3 3 2 2 3 4 3 3 3 3 2 2 2 1 2 3 3 2 2 2 2 1 2 1 2 4 4 4 4 4
4 4 4 4 4 5 5 5 4 4 4 3 3 3 3 3 1 2 4 3 2 2 2 2 2 1 0 2 3 3 3 3 3 3 3 4 4 3 4 4 4 5 4
4 4 4 4 5 4 4 4 4 4 3 3 3 3 3 3 2 3 3 3 3 2 2 2 1 3 2 2 3 3 4 5 4 4 4 3 3 3 3 3 4 5 4
4 4 4 4 4 3 4 4 4 4 4 4 4 4 3 3 2 3 4 4 4 2 2 1 0 2 3 4 3 3 4 5 4 3 3 3 3 3 2 2 3 4 4
4 4 3 3 3 3 4 4 4 4 4 4 3 3 3 2 2 4 5 5 5 3 2 1 2 3 4 4 4 4 5 4 3 3 4 3 3 3 3 2 3 4 4
4 3 3 3 3 3 3 3 3 3 3 3 3 3 3 3 3 2 3 3 4 4 2 2 4 5 4 2 3 3 3 2 3 4 4 3 3 2 3 3 3 3 3
3 3 3 3 3 2 2 1 2 1 2 3 3 3 3 3 1 1 2 2 2 1 2 2 1 1 2 2 2 2 2 2 3 3 3 3 3 3 3 2 3 3 3
3 3 3 3 2 3 2 1 4 3 4 3 2 3 1 1 1 1 1 1 2 2 3 3 2 2 3 2 2 2 2 2 2 3 3 3 3 3 2 2 3 3 4
2 2 2 2 2 2 2 2 1 2 2 2 2 2 1 1 0 1 1 1 2 3 4 3 2 3 2 2 2 2 2 2 2 2 3 3 3 3 3 3 3 3 4
3 2 2 2 2 2 2 2 2 2 1 1 1 2 2 3 3 2 2 2 2 3 3 2 2 2 2 2 2 2 2 2 2 3 3 3 3 3 3 3 3 3 4
2 2 2 2 2 2 2 2 2 2 1 1 1 2 3 4 4 4 4 3 2 2 2 2 2 2 1 2 2 2 2 2 2 3 3 3 3 3 3 3 3 2 4
2 1 2 2 2 2 3 2 2 2 2 2 1 1 2 3 2 3 3 2 2 2 2 1 1 1 1 2 2 2 2 2 2 3 2 2 3 3 3 4 3 3 4
1 2 3 3 2 2 2 2 2 2 1 1 1 0 1 3 2 2 2 2 2 2 1 1 1 1 1 2 2 2 3 2 2 2 3 3 3 3 3 3 3 3 4
1 2 2 2 2 2 2 2 2 2 2 2 2 2 3 4 3 2 2 2 2 1 1 1 1 1 1 2 2 2 2 2 2 2 3 3 3 3 3 3 4 4 4
2 1 2 2 2 2 3 2 2 2 2 2 2 2 3 3 2 2 2 1 1 1 1 1 1 1 1 1 2 2 2 2 2 2 3 3 3 4 4 4 4 5 5
2 2 2 2 2 2 2 2 2 2 2 2 2 2 2 2 2 2 2 1 1 1 1 1 1 1 1 2 2 1 1 3 4 3 3 4 4 4 4 4 4 5 5
2 2 2 1 1 2 2 2 2 2 2 1 2 2 2 2 2 1 1 1 1 1 1 1 1 1 2 2 2 1 4 3 2 4 4 4 4 5 5 5 5 5 6
1 1 1 1 1 1 2 2 2 2 2 1 1 1 1 2 2 2 1 1 1 1 1 2 2 2 2 2 1 2 2 1 1 3 5 4 4 4 5 5 6 6 6
Wind_Direction
196 197 203 199 198 198 205 217 225 237 237 240 245 243 242 245 243 242 251 244 244 250 256 255 259 282 284 278 264 259 259 258 258 268 257 243 267 282 264 254 240 231 196
192 193 198 197 200 205 205 209 215 224 231 229 236 238 242 243 243 243 248 248 247 249 254 258 261 261 263 273 270 262 264 264 254 259 260 248 236 250 270 268 261 255 243
185 193 196 198 201 209 215 215 214 214 223 234 235 236 240 245 242 242 247 251 254 256 258 257 260 266 267 268 268 267 264 252 244 243 250 258 249 241 250 255 264 268 263
187 194 198 205 207 210 213 216 216 213 213 221 231 239 245 244 243 241 239 245 252 254 257 259 262 267 270 266 259 266 271 267 248 246 247 240 238 231 255 259 255 235 266
192 198 199 200 199 204 208 212 214 216 219 221 232 238 245 243 244 244 238 234 241 249 250 254 258 291 311 300 292 278 270 265 255 249 249 250 252 252 262 269 272 274 250
198 206 203 201 200 203 206 209 208 211 220 223 227 236 242 250 274 253 250 242 237 239 242 249 243 226 239 264 315 328 310 271 270 267 261 254 268 269 279 277 282 281 274
199 206 204 205 204 206 209 204 210 213 214 219 224 228 235 242 224 230 240 240 235 236 235 238 250 239 216 229 211 208 233 283 273 265 266 275 262 272 278 270 279 288 292
201 204 203 203 201 198 201 204 208 212 215 215 218 222 234 224 188 224 236 228 237 238 239 235 244 262 277 275 246 229 230 233 238 237 243 267 281 289 271 267 272 263 250
202 205 204 203 203 204 206 206 207 209 216 220 216 220 234 238 189 216 238 225 222 232 236 232 231 228 304 276 236 232 233 225 204 208 229 234 273 289 291 276 272 265 260
204 208 208 206 208 213 212 211 208 207 213 223 224 228 235 245 186 200 243 241 228 230 224 214 182 216 256 277 247 246 248 252 248 217 208 218 224 220 229 256 269 271 273
210 212 213 211 212 210 209 209 210 213 213 225 234 237 239 238 200 191 225 247 251 238 232 229 193 146 184 245 268 269 273 271 249 244 236 234 229 225 227 229 256 274 279
210 213 215 217 224 200 194 204 211 217 218 217 222 236 234 222 213 198 201 228 261 242 245 247 201 161 208 231 250 268 268 268 254 253 254 256 257 254 248 249 250 262 276
205 208 212 210 210 205 202 206 208 212 231 232 230 236 242 234 196 191 195 205 219 229 257 239 243 219 223 222 217 230 238 247 255 253 253 259 262 265 263 241 233 233 240
201 199 202 202 201 200 214 223 230 233 239 246 251 250 247 238 237 223 215 200 194 206 225 194 204 214 225 231 219 219 235 250 257 258 263 264 265 261 258 261 255 244 245
192 198 209 210 199 195 209 296 272 304 326 279 271 266 261 253 290 348 270 253 266 276 264 241 238 243 237 225 230 239 242 237 239 250 259 262 258 253 254 259 266 262 263
194 200 214 217 202 205 189 150 53 44 53 37 340 308 330 26 68 281 272 260 250 233 244 243 241 243 249 249 253 252 250 253 258 265 261 260 259 257 259 259 256 261 266
216 211 218 217 202 211 211 201 178 122 86 61 48 48 82 125 150 216 202 191 230 224 236 241 247 251 255 256 264 278 280 289 292 277 270 264 260 260 259 264 270 272 272
206 186 205 204 210 211 215 222 219 214 194 167 133 140 173 182 193 212 209 202 220 219 244 259 261 262 270 275 275 278 285 281 276 279 277 275 275 271 269 269 268 277 279
215 204 209 210 209 213 223 228 221 214 216 207 186 150 170 186 188 202 210 240 253 251 262 274 282 285 291 294 291 291 287 282 293 286 277 280 280 278 279 281 283 287 278
202 158 220 228 219 211 221 228 226 225 224 225 226 220 179 200 212 207 216 238 250 248 261 273 292 307 301 292 290 287 283 282 283 280 291 290 291 290 290 288 292 289 280
204 160 181 220 225 228 233 236 234 236 240 236 234 150 258 247 244 240 240 238 246 243 247 259 261 258 250 247 266 278 283 291 298 301 305 305 309 313 307 296 291 287 287
208 189 214 220 212 224 239 242 238 231 233 239 234 174 199 247 252 248 246 242 241 237 225 225 232 243 266 271 274 281 284 288 304 313 311 309 306 302 300 299 299 297 292
221 208 215 215 211 195 228 235 230 232 236 239 250 227 212 242 253 253 253 260 262 238 219 224 230 232 257 283 283 280 288 302 310 312 308 305 300 297 296 296 297 296 295
214 213 214 210 216 220 227 233 240 240 232 228 237 235 233 242 251 252 261 261 260 249 233 233 239 251 265 281 282 292 2 352 324 311 304 296 290 289 291 291 287 286 286
203 208 215 214 220 225 234 238 239 234 227 226 229 236 241 249 252 249 252 251 260 260 244 244 244 247 266 277 295 3 52 39 346 318 290 282 288 291 289 288 287 289 287
201 195 217 227 240 239 234 231 238 244 238 228 227 234 248 254 260 263 258 247 253 259 257 247 244 247 259 260 46 69 96 105 292 300 291 283 283 288 292 285 285 283 282